Terminal Aerodrome Forecast
Issued by NWS Wichita, KS

Home | Current Version | Previous Version | Graphics & Text | Print | Product List | Glossary On
Versions: 1 2 3 4 5 6 7 8 9 10 11 12 13 14 15 16 17 18 19 20 21 22 23 24
522
FTUS43 KICT 191507 AAB
TAFICT
TAF AMD
KICT 191507Z 1915/2012 17020G28KT P6SM FEW100
     FM191900 18026G38KT P6SM FEW200
     FM200200 17018G22KT P6SM FEW250=

USA.gov is the U.S. government's official web portal to all federal, state and local government web resources and services.